STARLINK-33940, 63831

Orbit data source: Space-Track

STARLINK-33940, 63831 is a payload satellite owned by SpaceX/Seattle (US) in LEO that was launched on Sun, 04 May 2025 UTC via an FALCON 9 launch vehicle from the Air Force Eastern Test Range (AFETR). Payload-class satellites include a variety of spacecraft equipped with specific instruments for various scientific and technological missions. These include communications satellites like Starlink; space stations such as the ISS; scientific satellites like the Hubble; Earth observation satellites from companies like Planet Labs, Umbra, and HawkEye 360; GPS; miniature CubeSats for education and research; and military/defense satellites.

Loading next visibility...
Identifier
63831, 2025-092AD
Orbit
LEO
Country
Flag of USUS
Related business
Manufacturer
SpaceX/Seattle
Mission
Operational Commercial Communications
Bus & Motor
STARLINK V2MO, Unknown motor
Mass
575 kg wet, ~530 kg dry
Launch date (UTC)
2025-05-04 (5 months ago)
Launch vehicle
FALCON 9
Launch site
Air Force Eastern Test Range (AFETR)
Object type
Payload
Rocket body
Debris
Shape & HBR
Box + 1 Pan, 14.5 m
Radar Cross Section
41.120 m², Large (>1 m²)

Expand to show TLE details & history
Last TLE update: 17 hours ago

TLE from 17 hours ago
0 STARLINK-33940
1 63831U 25092AD  25260.93583303  .00026823  00000-0  97962-3 0  9995
2 63831  43.0082  68.2158 0004978 282.1808  77.8486 15.27608668 22246
Epoch: 2025-09-17T22:27Z
TLE epoch observation values (Epoch: 2025-09-17T22:27:35.973Z)
Latitude
-0.00004°
Longitude
94.21123°
Altitude
482.022 km
Speed
7.627 km/s
True Right ascension
04h 32m 51s
True Declination
0° 00' 00"
Sunlit
Object was in daylight at epoch
Visualization orbit readout
Latitude
Unknown
Longitude
Unknown
Altitude
Unknown
Speed
Unknown
Apparent Right ascension
Unknown
Apparent Declination
Unknown
Sunlit
N/A
Visualization observer readout
Local Sidereal Time
08:22:16
Azimuth
Unknown
Elevation
Unknown
Doppler factor
Unknown
Orbital elements
Apogee altitude
488.324 km
Perigee altitude
481.491 km
Semi-major axis
6,863.044 km
Eccentricity
0.0005
Inclination
43.0082°
RAAN
68.2158°
Arg. of periapsis
282.1808°
True anomaly
77.90437°
Mean anomaly
77.8486°
Eccentric anomaly
77.87649°
Mean motion
3.8174 °/min
Orbital period
94.3 mins
BSTAR
0.00097962
Loading maneuver chart data...
Computing Atmospheric mass density...
Loading historical data...
Loading historical data...
Loading historical data...
Loading historical data...
Loading historical data...
Loading historical data...
Loading historical data...

Documentation

Showing up to 5 results
|